Wind_Speed
16 16 17 18 19 21 21 21 21 21 21 22 23 24 25 25 26 25 24 24 25 26 24 20 21 27 28 26 26 24 23 23 23 23 24 26 26 26 26 26 26 27 28 29 30 30 28 24 24 32 45 45 41 41 39 36 36 35 34 34 35 34 32 31 30 31 31 29 28 28 28 27 27 27 26 26 27 28 28 27 27 26 25 25 24 23 22
14 15 16 17 18 19 20 20 20 20 21 22 22 23 23 24 27 26 24 25 26 25 23 21 21 24 24 23 25 25 24 24 25 27 27 28 30 29 27 26 26 28 29 29 31 31 30 27 22 24 42 51 43 41 42 37 35 37 36 35 35 35 33 32 32 33 32 30 29 29 28 28 28 27 26 27 29 31 30 30 29 28 28 27 26 26 25
12 13 15 17 18 19 19 18 18 18 20 21 22 23 23 23 24 25 24 24 26 26 24 24 24 23 22 22 25 26 26 25 27 30 29 27 28 29 27 24 25 27 28 28 29 30 31 29 21 14 26 46 47 41 39 37 35 36 36 36 36 35 34 34 35 34 33 33 33 32 31 31 31 30 28 29 31 33 32 32 32 31 30 30 29 29 29
12 12 13 16 18 19 19 18 17 18 19 20 21 23 24 24 24 24 23 24 26 26 26 26 26 25 24 23 25 26 27 26 27 30 30 23 19 20 21 22 23 25 26 27 27 27 28 28 25 16 12 25 38 42 39 35 34 35 36 36 37 36 36 36 36 35 35 35 35 34 34 34 33 32 31 31 33 34 34 34 34 33 33 33 32 32 32
14 13 13 14 14 16 18 18 17 18 18 20 21 23 24 25 25 24 22 23 25 26 27 27 26 28 28 25 23 24 26 27 27 29 31 28 21 19 18 20 21 22 23 25 26 26 25 24 24 21 16 13 19 32 39 37 34 34 35 36 36 37 38 38 38 37 37 37 36 35 36 36 36 36 35 34 36 36 36 36 36 36 36 36 35 35 34
15 13 12 12 13 15 17 17 16 17 18 20 21 22 23 24 26 25 22 22 24 26 27 27 24 24 27 28 24 23 24 28 28 28 32 32 28 24 21 20 20 20 21 23 24 25 24 22 20 19 18 16 13 14 25 32 33 34 36 37 38 40 41 41 40 40 40 39 38 38 38 38 39 39 38 38 38 38 39 39 39 38 38 38 38 37 35
15 14 13 12 13 15 16 15 16 17 18 19 21 22 23 24 25 25 23 22 23 24 25 28 26 22 21 25 27 27 26 25 27 28 29 31 29 25 23 21 20 19 20 20 21 22 23 22 19 17 17 18 16 12 11 15 20 24 27 29 32 35 40 43 43 42 41 39 39 40 41 41 41 41 41 41 41 42 42 42 41 39 38 39 40 39 38
14 14 14 13 14 15 15 15 17 18 18 19 21 22 23 23 24 25 24 22 22 22 22 26 29 28 24 22 27 31 29 25 25 25 26 27 27 25 23 21 20 19 18 17 18 19 20 21 20 18 17 17 18 17 14 13 13 14 16 17 19 21 26 35 42 44 43 42 42 43 45 45 45 44 44 43 43 45 45 44 43 42 42 42 41 40 40
14 14 15 14 14 15 15 15 16 17 17 18 20 22 23 22 22 24 24 22 21 21 21 22 26 30 30 26 26 28 28 27 27 25 24 25 26 25 24 22 20 19 18 17 16 17 18 19 20 19 18 18 19 19 17 16 17 17 17 16 14 12 13 20 29 35 38 40 44 48 49 48 48 47 46 47 48 49 48 48 47 47 47 46 43 41 42
14 14 15 15 15 15 15 14 14 15 16 17 18 19 21 21 21 22 23 23 21 20 20 21 22 25 27 29 29 28 26 26 27 26 24 23 24 25 24 23 21 20 19 18 17 16 17 17 18 17 17 17 18 19 18 18 19 20 21 20 18 14 12 13 18 24 27 28 32 40 44 46 47 47 47 48 49 49 49 50 51 51 51 50 46 43 44
14 14 15 15 16 16 15 14 14 14 15 15 16 16 18 19 20 21 22 22 21 20 19 20 21 23 24 26 28 29 27 24 24 24 24 24 23 23 24 23 21 21 20 19 18 18 17 16 16 16 16 15 17 18 18 18 19 20 22 22 22 19 17 16 17 23 26 23 21 25 30 33 35 36 39 45 46 45 47 48 50 52 54 53 50 47 46
14 15 16 17 17 17 15 14 14 13 14 14 14 15 16 17 18 19 20 20 21 21 20 19 20 22 24 24 24 26 27 26 24 22 22 24 23 23 23 23 22 21 21 20 19 18 17 17 17 18 17 17 17 19 19 19 19 20 21 22 23 22 20 20 21 23 27 27 23 21 21 22 21 18 22 35 41 40 41 43 45 50 53 54 53 50 48
16 15 17 18 18 17 15 14 13 13 14 14 14 15 16 17 18 19 19 19 20 20 19 20 20 21 23 23 23 24 25 26 27 25 24 25 25 24 24 24 24 23 22 22 21 20 19 19 20 20 20 19 19 19 20 21 20 20 21 22 23 22 21 21 23 26 28 28 28 26 24 23 21 16 15 21 27 30 34 37 40 43 47 50 53 52 50
17 16 17 18 19 18 16 14 14 13 13 14 14 15 16 17 17 17 17 18 18 18 18 19 20 21 22 22 23 24 24 24 23 23 25 27 27 27 26 25 25 25 24 23 23 22 21 21 21 21 21 21 21 20 20 21 22 22 22 22 23 23 23 22 23 26 28 28 27 29 29 28 27 26 23 22 21 21 24 28 34 39 42 43 46 47 47
17 17 17 18 19 18 16 15 14 14 14 15 14 13 14 16 16 16 16 16 16 17 18 18 19 21 21 22 23 24 25 25 24 23 24 27 27 27 27 26 25 25 24 24 24 23 23 23 22 21 20 21 21 21 20 21 22 22 23 23 24 25 25 25 24 25 27 27 26 26 29 29 28 27 27 26 25 23 20 20 24 32 39 41 41 41 42
18 18 18 18 18 18 16 16 15 14 14 15 15 14 14 15 15 15 15 14 14 16 17 17 18 18 19 22 24 25 26 27 27 26 26 27 28 27 27 27 27 26 25 25 25 24 24 24 22 21 21 21 21 21 21 21 21 22 23 24 25 26 27 27 26 25 26 27 26 26 27 29 29 27 27 27 28 27 26 23 21 22 29 36 39 38 38
18 18 19 18 17 17 16 16 15 15 15 15 15 15 15 14 14 14 14 13 12 13 15 16 16 15 16 18 22 25 28 29 29 29 29 29 29 29 29 29 28 27 27 26 25 25 25 25 24 22 21 21 22 22 22 22 22 22 23 24 25 26 27 28 27 27 27 27 27 27 27 28 28 26 24 24 25 25 26 27 25 22 22 26 31 34 35
19 19 19 19 18 17 17 16 15 15 15 15 15 15 15 15 13 13 12 12 11 11 13 15 16 14 13 14 17 21 25 27 28 29 29 29 29 29 29 29 28 28 27 27 26 26 26 25 25 23 22 22 22 23 23 23 23 23 24 24 25 26 27 28 28 28 28 28 27 27 27 28 28 26 23 21 22 22 23 24 25 24 22 22 23 26 27
20 19 19 19 18 17 16 16 15 15 15 15 16 16 15 15 13 12 12 11 11 10 11 13 14 13 12 12 13 16 18 21 22 24 26 27 28 28 27 27 27 27 26 26 26 25 25 25 24 24 23 22 23 23 24 24 25 25 24 25 25 26 26 27 28 28 28 28 27 27 27 27 27 27 25 22 21 22 21 21 22 23 23 23 22 22 21
20 20 19 19 17 16 15 16 16 15 14 14 14 15 15 14 13 12 12 11 11 11 11 11 12 13 13 12 12 13 15 16 17 18 20 22 23 24 24 24 24 24 24 24 24 24 24 24 24 24 23 23 23 24 25 25 26 26 26 26 26 26 26 27 27 28 28 28 28 27 27 27 27 27 26 24 23 23 23 23 23 23 24 25 26 26 25
20 20 19 18 16 15 16 16 15 13 12 12 12 13 13 14 13 13 12 12 12 11 11 11 11 11 12 12 12 12 13 14 14 14 16 17 18 19 20 20 21 22 22 22 22 23 23 23 23 23 24 23 23 24 25 26 27 27 27 27 27 27 27 27 27 28 28 29 29 29 28 28 28 28 28 27 26 25 26 26 26 25 26 26 27 29 31
20 19 18 17 16 15 16 16 14 12 11 11 11 11 12 12 12 12 12 12 11 11 11 11 11 11 11 11 11 11 11 11 11 12 12 13 14 15 16 17 18 19 20 20 21 23 23 24 24 24 24 24 24 25 25 26 27 28 28 28 29 29 28 29 29 29 29 29 30 30 30 30 30 30 30 30 29 29 29 29 29 28 28 28 29 30 32
20 18 17 16 16 15 15 15 15 13 12 11 11 11 11 11 11 11 11 10 10 10 11 11 11 11 10 10 11 11 10 10 10 11 11 12 12 13 14 15 16 16 17 19 20 22 23 24 24 25 24 25 25 26 27 27 28 28 29 29 30 30 30 30 31 31 31 31 31 31 32 32 32 32 32 32 32 32 32 31 31 31 31 31 31 31 33
19 18 17 17 16 15 15 15 14 13 12 11 11 11 11 10 10 10 9 9 9 9 9 9 10 10 9 9 10 10 10 10 10 10 11 11 12 12 13 13 14 14 15 17 19 21 22 23 23 24 24 25 25 26 27 28 28 29 29 30 31 31 32 32 32 32 32 33 33 33 34 34 34 35 35 35 35 35 35 35 34 34 34 34 34 34 34
20 19 19 17 16 15 14 13 13 13 12 12 12 12 11 11 10 10 10 10 9 9 8 8 8 9 9 9 9 9 10 10 10 10 11 11 11 12 12 13 13 14 15 16 17 19 19 20 21 21 22 23 24 26 27 27 28 28 29 29 30 31 32 32 33 33 34 34 34 34 35 36 36 37 37 38 38 38 38 38 38 38 37 37 37 37 37
21 21 19 17 16 16 15 13 13 12 12 13 13 13 12 11 11 11 11 10 10 9 9 9 9 9 10 10 10 10 10 10 11 11 11 12 12 12 13 13 14 14 15 16 17 17 18 18 19 20 21 22 23 25 26 27 28 29 29 29 30 31 32 33 33 34 35 35 35 35 35 36 37 38 38 39 40 40 41 41 41 42 41 41 40 41 41
22 21 19 17 16 16 15 13 12 12 13 14 14 12 11 10 9 9 9 9 9 9 9 9 9 10 11 11 12 12 12 12 12 12 12 12 13 13 13 14 14 15 15 16 16 17 17 17 18 19 20 21 22 23 25 26 27 28 29 30 31 31 32 32 33 34 34 35 36 36 37 37 37 38 39 39 40 41 42 42 43 43 43 43 43 43 43
22 21 20 18 17 16 15 13 12 12 14 14 13 11 10 9 7 6 5 5 6 6 7 8 9 10 11 11 12 13 13 13 13 13 13 13 13 13 13 14 15 15 16 16 17 17 18 18 19 20 20 21 22 23 24 25 26 27 29 30 31 31 32 32 33 34 34 35 36 36 37 38 38 38 39 40 41 42 42 43 44 44 45 45 45 45 45
23 22 20 19 18 16 15 14 13 13 14 14 12 11 10 8 6 5 4 4 4 4 5 5 7 8 9 10 11 12 13 13 13 14 14 14 14 14 15 15 16 16 16 17 17 17 17 17 17 18 19 19 19 20 20 21 22 23 25 26 27 28 29 30 31 32 33 34 35 36 37 38 39 40 40 41 42 42 43 44 44 45 46 46 47 47 47
24 23 21 20 18 17 17 15 14 13 14 14 13 11 10 8 6 5 4 4 4 5 5 5 5 6 6 7 8 9 10 10 11 11 11 12 12 13 13 14 14 14 14 14 14 14 14 14 15 16 16 17 18 18 19 20 21 22 22 24 25 26 27 28 29 30 31 32 33 35 36 37 38 39 40 41 42 43 44 45 46 46 47 47 47 48 48
25 24 22 19 18 18 18 17 15 14 15 15 14 13 11 9 8 7 6 5 5 5 5 6 6 6 6 6 7 7 7 8 8 9 9 9 10 10 10 11 11 11 12 12 13 13 14 14 15 16 17 18 19 20 21 22 23 24 25 26 27 28 29 30 31 32 33 34 35 35 37 38 38 39 40 41 42 43 44 45 46 47 48 48 49 49 49
26 24 21 19 19 20 20 18 16 15 16 16 16 14 12 11 10 9 8 7 7 6 6 7 7 7 7 7 7 7 7 8 8 8 9 9 9 9 10 10 10 11 12 13 13 14 15 16 17 18 19 20 22 23 24 26 27 28 29 30 31 31 32 33 34 35 36 37 38 39 39 40 41 42 43 43 44 44 45 45 46 46 47 47 49 50 51
26 24 22 21 21 22 21 19 17 17 17 18 17 15 14 13 12 11 10 10 10 9 9 9 9 8 8 8 8 8 8 8 9 9 9 10 10 10 11 11 12 13 13 14 15 16 18 19 20 20 21 23 24 25 27 28 29 31 31 33 34 35 36 36 38 39 40 41 41 42 43 43 44 44 44 45 46 47 47 48 48 48 47 47 47 48 49
26 25 24 23 23 22 21 19 18 18 18 19 18 17 15 14 13 13 13 13 13 12 12 12 11 11 10 10 10 10 10 11 11 11 12 12 12 13 13 14 14 15 15 16 18 19 20 21 22 23 24 25 26 27 28 30 31 33 34 35 37 38 39 40 41 41 42 43 44 44 44 45 45 45 45 46 47 48 48 49 49 50 50 50 49 48 48
27 27 25 24 23 22 20 19 19 19 20 20 19 18 17 16 15 15 15 15 15 15 15 14 13 13 13 13 13 13 14 14 14 15 15 16 16 16 16 16 16 17 18 19 20 22 23 23 24 25 25 26 27 29 30 32 34 36 37 38 39 40 41 42 43 43 44 44 45 45 45 45 45 45 45 46 47 47 48 49 50 51 51 52 52 51 51
28 26 25 23 23 22 21 20 20 21 21 21 20 19 18 17 16 16 16 16 16 15 15 14 14 14 14 14 14 15 15 16 17 17 18 18 19 19 19 19 19 20 21 22 23 25 25 25 25 26 26 28 29 31 33 34 36 37 38 40 41 41 42 43 43 43 44 44 45 45 45 45 45 45 45 46 47 47 48 49 50 50 52 53 53 52 52
28 27 25 25 24 23 22 21 22 22 22 21 21 20 19 18 17 17 17 16 15 14 14 14 14 14 14 15 15 16 16 17 17 18 19 20 20 21 22 22 23 24 25 25 26 27 27 27 27 27 28 30 32 33 35 36 37 38 39 40 41 41 42 42 43 43 44 44 45 45 45 46 46 46 46 46 47 48 48 49 49 50 51 53 53 53 54
29 27 26 26 25 24 23 23 23 23 23 22 22 21 20 19 18 18 17 16 15 14 14 14 14 14 15 16 16 17 17 18 19 20 21 22 23 23 24 25 26 27 28 28 28 28 28 28 28 30 31 33 35 36 37 38 39 39 40 40 41 41 42 42 43 44 44 45 45 46 46 46 47 48 48 48 48 49 49 50 50 50 51 53 53 54 54
28 27 27 26 25 24 24 24 24 24 23 23 23 22 21 20 19 18 18 17 17 15 15 15 15 16 17 17 17 18 19 20 21 22 23 24 25 25 26 27 28 29 30 30 30 30 29 30 31 33 34 36 37 38 39 40 40 40 41 41 42 42 43 43 44 44 45 46 46 46 47 47 47 48 48 48 48 49 50 50 50 50 52 53 53 53 54
28 27 27 26 25 25 25 25 25 24 24 24 23 23 22 21 20 19 19 19 19 18 17 17 18 18 18 18 19 19 20 21 22 23 23 24 25 26 27 28 29 30 31 31 31 31 31 32 34 35 36 38 39 40 41 41 42 42 43 43 43 43 44 44 45 45 45 46 46 46 47 47 47 48 49 49 50 50 50 50 51 51 52 53 53 54 54
29 28 27 26 26 26 26 25 25 24 24 23 23 23 22 22 21 21 21 21 20 20 20 20 20 20 20 20 20 21 21 22 22 23 23 24 25 26 27 28 29 30 31 31 31 32 33 34 36 37 38 39 41 41 42 43 44 44 45 45 45 45 45 45 45 45 45 46 46 47 47 48 48 49 50 50 51 51 51 51 51 52 53 53 54 55 55
28 27 27 26 26 26 26 25 25 25 24 24 24 23 23 23 22 22 22 22 22 22 21 21 21 21 21 21 22 22 22 23 23 23 24 24 25 26 27 28 29 30 31 32 32 33 35 36 37 39 40 40 41 42 44 44 45 45 45 46 46 46 46 46 45 45 46 47 47 47 48 48 48 48 48 48 48 48 48 47 48 49 50 51 52 53 55
27 27 26 26 25 25 26 26 26 25 24 24 24 24 24 24 23 23 23 23 23 23 23 23 22 22 23 23 23 24 24 25 25 26 26 26 27 28 28 28 29 30 31 32 33 35 36 37 39 39 40 41 42 44 45 45 45 45 45 45 45 45 45 45 46 46 46 46 47 47 46 46 45 44 44 43 43 43 42 42 43 44 45 47 48 50 52
27 27 26 25 25 25 26 26 26 25 25 25 25 25 25 24 24 23 23 23 24 24 24 24 24 24 24 25 25 26 27 28 29 29 29 29 29 29 29 29 30 31 32 33 34 36 37 38 39 40 41 42 43 44 45 45 45 44 44 44 44 44 44 45 45 45 45 45 45 45 44 43 42 42 41 41 41 41 41 42 42 42 42 44 45 47 48
27 26 25 25 25 25 26 26 26 25 25 25 25 25 25 25 24 24 24 25 25 25 25 25 25 25 25 26 27 28 29 30 31 31 32 32 31 31 31 31 31 31 32 34 35 37 38 38 39 40 41 43 44 44 44 43 43 43 43 43 43 43 43 43 43 43 43 43 43 43 42 41 41 41 41 41 41 42 42 42 42 42 41 42 42 43 44
26 26 25 25 24 25 25 25 25 26 26 25 25 25 26 25 25 25 26 26 26 26 26 26 26 26 26 27 28 29 30 32 32 32 32 32 32 32 32 32 32 32 33 35 36 37 38 39 40 41 42 43 43 43 42 42 41 41 41 41 42 42 41 41 41 41 41 41 42 42 42 41 40 40 40 40 40 41 41 41 40 40 39 40 40 40 41
26 26 25 25 24 24 24 24 25 26 26 26 26 26 26 26 27 28 28 28 28 27 27 27 26 26 27 28 29 31 33 33 33 32 32 32 32 32 33 33 33 33 34 35 36 37 38 39 41 41 42 42 42 41 40 40 39 39 39 39 39 40 40 40 40 41 41 41 41 41 40 40 39 39 38 38 39 39 39 39 38 38 38 39 39 39 39
25 26 26 26 25 25 25 25 26 26 27 27 27 27 27 28 29 30 30 29 28 27 27 27 27 27 28 29 30 31 33 33 32 32 32 32 33 33 33 33 33 34 34 35 36 38 39 40 41 41 41 40 40 39 38 38 38 38 37 37 38 38 39 40 40 41 41 41 40 39 38 37 37 37 36 36 37 37 36 36 37 38 39 40 40 40 40
24 25 25 25 25 25 25 25 26 27 27 27 28 28 29 31 31 31 30 28 27 27 27 27 27 28 28 29 30 31 31 31 31 31 32 33 33 33 33 33 33 34 35 36 37 38 39 40 40 40 39 39 38 37 37 36 36 36 36 37 37 38 39 40 41 42 41 40 38 37 36 35 34 34 34 34 33 33 33 34 36 38 39 41 41 41 40
23 24 24 24 24 24 24 25 26 27 27 28 29 30 32 32 32 30 29 27 27 28 28 28 28 29 29 30 31 32 32 32 32 33 33 33 34 33 33 33 33 34 35 36 37 38 39 39 38 37 37 36 36 35 35 35 35 35 36 37 38 39 39 40 40 40 38 36 34 33 32 32 31 31 31 31 31 31 31 33 35 37 38 38 39 39 38
23 23 23 24 24 25 25 26 26 27 27 28 30 31 32 32 30 29 27 27 28 29 29 29 29 30 31 32 33 33 33 33 33 33 33 33 33 33 33 33 34 35 36 36 37 37 37 37 36 35 35 34 34 34 33 34 34 35 36 37 38 39 39 39 38 36 35 33 31 30 30 30 29 30 30 30 30 30 31 33 34 34 34 34 35 35 35
23 23 24 24 25 25 25 25 26 26 28 30 31 32 31 30 28 27 27 28 29 30 30 30 31 32 33 33 34 34 34 34 34 34 33 33 32 32 32 33 34 35 35 36 36 36 35 34 33 33 33 33 32 32 32 33 34 35 36 37 37 38 37 36 35 33 32 30 29 28 28 28 29 29 30 30 30 31 31 31 31 32 31 31 32 32 31
Wind_Direction
259 260 262 264 265 266 267 267 266 268 267 266 266 265 262 261 260 262 263 263 266 266 265 261 253 248 243 231 219 219 224 230 237 242 242 242 245 253 261 267 273 275 274 273 275 276 271 268 266 242 224 220 226 228 230 231 228 229 233 235 235 234 232 233 233 235 237 238 239 239 238 240 242 244 245 246 248 248 246 244 244 243 243 243 242 242 242
260 260 262 265 267 268 269 269 269 270 268 267 268 268 265 262 262 263 263 260 260 261 259 252 248 247 244 236 228 226 228 232 238 242 246 249 249 252 259 266 271 274 275 275 276 278 273 267 272 250 221 216 220 225 227 228 226 226 229 233 236 235 234 234 234 235 238 240 240 241 243 243 243 242 242 242 247 251 248 245 244 243 244 245 246 246 246
263 262 264 265 264 265 266 268 269 269 269 267 265 265 264 262 261 261 259 256 255 255 253 249 247 247 243 238 235 235 233 234 238 243 248 251 247 245 251 261 269 273 277 279 278 282 281 271 271 267 225 216 218 221 223 225 226 227 229 231 235 235 234 234 235 236 239 240 240 241 243 245 245 245 244 243 247 253 254 250 248 245 244 244 246 247 248
265 268 272 269 265 263 261 260 260 261 264 266 264 263 261 260 261 260 256 254 252 251 250 248 246 245 241 237 238 240 237 232 236 244 246 242 239 242 249 258 267 274 279 282 282 285 291 282 271 278 261 227 223 224 225 226 227 229 231 233 234 234 233 235 236 237 238 239 241 242 242 244 246 247 246 243 244 249 253 253 252 249 246 244 245 247 249
265 270 275 273 267 260 255 253 253 255 260 264 265 263 261 259 259 257 254 252 250 249 248 247 248 244 238 236 239 240 236 230 230 238 241 241 248 256 257 259 267 275 281 286 287 287 294 293 278 273 283 275 241 229 228 230 232 234 236 238 236 233 232 234 236 237 237 239 242 243 242 243 245 247 246 244 243 245 248 250 251 251 251 248 246 245 248
262 266 272 274 265 257 254 253 254 256 259 264 267 267 264 261 259 257 255 252 249 247 245 245 248 243 232 231 230 222 218 221 222 226 234 241 249 254 255 258 265 273 280 286 291 292 295 297 288 275 273 285 287 249 229 229 232 235 239 242 242 239 236 235 235 235 236 238 241 242 242 243 244 246 246 246 246 246 247 248 249 251 253 254 251 248 247
261 262 267 270 264 259 259 259 257 257 259 263 267 269 266 263 262 260 258 255 250 247 243 241 247 248 233 223 219 212 207 210 215 220 229 237 243 246 250 254 259 267 276 284 290 296 301 300 295 284 273 273 285 290 265 243 236 234 237 241 243 242 240 237 236 236 237 238 241 242 243 244 245 246 247 248 250 250 250 251 250 250 253 255 254 251 249
260 260 260 262 264 265 265 263 260 259 260 263 266 269 267 264 263 262 260 258 255 251 244 238 242 251 248 226 214 215 214 210 210 215 222 228 235 239 242 246 252 258 267 277 286 293 301 305 302 294 284 276 277 286 290 286 272 255 246 245 243 241 240 237 237 238 239 241 243 245 245 246 247 248 249 250 251 252 253 254 252 251 251 251 250 253 252
258 258 258 258 261 265 265 264 263 262 262 263 266 270 270 267 264 262 261 260 258 254 249 241 236 243 249 240 226 223 223 216 210 209 210 216 226 232 236 240 245 251 258 267 278 287 293 301 305 303 296 286 283 287 289 289 287 279 270 265 261 254 246 237 235 237 240 243 245 246 246 247 248 251 252 252 252 253 254 254 253 251 250 250 249 251 251
255 256 257 257 257 261 262 262 263 263 262 264 268 272 275 272 266 263 261 259 256 252 249 245 237 236 241 240 235 235 233 220 208 204 205 211 219 226 233 238 241 246 253 259 266 276 285 291 296 300 300 292 287 288 288 286 285 283 280 281 281 281 271 248 236 233 234 242 248 247 246 246 246 249 253 253 253 254 253 252 252 251 250 250 250 248 247
254 254 254 253 253 257 261 262 263 264 263 266 272 275 277 274 267 263 263 261 257 252 247 244 239 235 235 235 233 235 235 223 207 201 205 212 217 223 231 237 240 244 250 255 261 267 274 281 284 285 287 286 282 282 283 283 281 279 280 282 285 287 281 266 252 238 234 244 253 243 238 241 242 248 256 256 252 251 251 249 249 250 249 248 247 245 243
253 252 251 251 252 254 258 260 262 265 265 267 271 271 270 270 265 261 262 262 260 258 252 247 242 238 237 237 236 236 237 234 227 218 216 218 222 226 231 236 241 245 249 254 259 262 266 273 277 276 275 276 275 274 277 280 280 278 279 280 282 285 285 280 275 263 254 261 265 249 236 237 235 239 255 255 250 250 250 248 246 246 247 247 246 245 244
251 250 249 251 253 254 255 257 259 263 265 264 264 264 266 269 267 264 264 263 262 260 256 251 248 244 240 239 240 240 239 240 241 238 234 232 232 234 236 240 243 248 251 254 256 258 264 272 275 272 270 271 271 271 271 274 276 276 277 278 279 282 283 282 281 278 274 276 276 269 263 262 259 260 269 266 261 258 253 248 243 242 244 245 245 246 246
252 251 249 250 253 255 256 258 258 259 262 262 261 262 265 269 269 267 265 262 259 256 253 250 249 247 241 237 237 241 242 242 240 238 237 236 237 239 241 243 246 249 252 255 255 258 268 276 274 268 267 268 269 269 268 269 271 272 273 274 275 276 276 277 278 279 279 281 282 279 279 281 280 280 282 285 284 277 265 256 249 245 245 245 245 246 246
252 253 252 250 252 256 258 258 257 257 260 263 264 264 267 270 271 270 266 262 256 250 246 245 245 245 241 234 231 234 239 241 238 235 233 233 235 238 242 245 248 250 253 256 258 263 272 277 271 263 262 264 266 266 265 264 266 268 268 269 270 270 271 272 273 276 278 280 282 283 284 285 286 286 284 284 285 287 287 281 267 255 250 248 249 250 247
248 251 252 251 252 255 257 257 257 258 260 263 264 265 267 269 270 270 268 265 258 248 241 241 243 244 242 235 230 229 234 238 237 235 234 234 236 239 242 246 249 253 256 259 262 268 273 274 267 260 258 259 260 261 261 260 261 263 264 265 266 267 269 270 271 272 274 276 278 279 281 283 285 287 288 287 286 286 287 290 290 278 261 251 248 250 249
246 249 252 253 252 255 256 257 258 259 259 260 260 261 263 265 266 268 269 267 262 253 244 241 243 245 244 237 230 229 232 236 237 237 237 238 239 242 244 248 251 255 259 263 266 271 273 270 264 259 257 255 254 254 256 258 258 259 260 261 262 263 264 267 268 268 269 271 273 275 277 280 283 286 288 289 288 287 285 285 288 291 283 265 252 249 250
246 249 252 253 253 255 256 256 257 259 259 258 257 256 258 261 263 264 265 266 265 260 252 246 246 250 251 243 234 230 232 235 238 238 239 240 242 244 246 249 252 257 261 265 268 271 271 267 262 260 257 253 250 250 252 253 255 256 257 258 259 259 260 262 263 264 265 266 268 270 272 275 278 281 283 284 283 281 281 281 281 283 285 280 264 252 247
246 248 250 251 252 254 257 257 257 257 257 257 257 256 256 258 260 261 262 263 262 261 258 254 253 256 258 252 242 236 234 236 237 238 238 239 241 244 246 248 251 255 259 263 266 266 265 262 260 259 257 251 248 248 249 250 252 253 254 254 255 256 257 258 260 262 263 264 264 265 266 268 271 275 277 276 276 275 275 274 274 273 274 274 268 258 247
244 246 247 249 250 252 256 257 256 255 254 255 256 255 255 255 256 258 258 258 257 255 254 255 256 259 261 258 250 242 237 235 234 234 234 235 236 238 240 242 245 249 252 255 257 258 256 255 254 255 255 252 249 248 249 251 252 254 255 254 253 253 254 255 256 258 260 262 262 262 262 263 264 267 269 268 268 268 269 268 268 267 265 264 262 259 253
243 245 245 246 247 250 253 255 257 255 252 252 252 251 251 250 250 251 251 251 251 250 249 250 251 254 258 259 255 249 242 237 233 232 231 232 233 234 235 237 238 241 243 246 248 248 248 249 250 251 253 253 252 251 251 253 254 257 258 258 257 257 256 255 255 256 257 259 260 260 261 261 260 261 263 264 263 262 262 263 265 263 261 259 258 257 256
241 242 242 242 244 247 250 252 254 252 249 250 252 252 250 247 246 246 246 246 247 247 247 248 247 247 250 254 255 253 250 246 243 241 239 238 237 237 237 238 238 239 241 243 245 246 246 247 248 249 252 254 256 256 256 257 258 260 261 262 262 262 261 260 259 259 258 259 260 260 260 261 261 260 260 262 262 262 260 260 261 261 260 259 257 257 257
236 236 236 237 240 244 246 247 248 248 249 251 252 252 250 248 246 246 246 245 245 244 243 243 244 243 243 245 248 250 251 250 249 248 247 247 247 246 245 244 244 244 246 248 249 250 250 249 249 250 252 255 258 260 262 262 262 262 263 265 265 266 266 265 264 263 262 262 262 262 262 262 262 263 262 262 262 263 263 261 260 260 260 259 258 256 257
231 232 232 233 238 242 244 244 246 247 248 250 250 250 250 249 248 248 249 248 246 245 243 242 242 242 241 240 241 243 245 246 247 247 247 248 249 250 250 250 251 251 252 253 254 254 254 254 254 254 255 257 259 263 266 267 267 267 266 267 268 269 269 270 269 268 267 266 265 265 265 265 265 265 265 265 264 264 265 265 264 262 260 260 260 259 257
227 230 230 231 237 243 244 242 243 243 244 245 247 248 249 250 250 250 250 249 248 247 247 246 245 246 246 244 242 240 239 240 242 244 246 247 248 249 251 253 254 255 256 257 258 260 260 261 262 262 262 263 263 265 267 269 271 271 271 270 271 271 271 272 273 272 272 271 270 268 267 267 267 267 267 267 267 266 266 266 266 265 264 262 262 262 261
226 228 229 230 236 242 244 242 239 239 239 240 242 246 249 250 250 250 250 250 249 249 249 249 250 249 250 250 250 248 246 244 243 244 245 247 248 250 253 254 255 256 256 257 259 261 262 264 266 267 267 268 268 268 270 271 273 274 275 275 274 274 274 274 274 275 274 274 274 273 272 271 270 270 270 269 269 268 268 267 267 268 267 266 264 263 264
225 226 227 230 235 241 244 243 239 237 236 237 240 243 245 246 247 248 250 253 254 253 252 251 250 250 250 250 251 252 252 251 251 251 251 252 254 255 257 259 260 259 259 260 260 261 262 264 266 268 268 268 268 268 269 270 271 272 274 275 275 276 276 277 277 277 277 277 277 277 277 276 274 273 273 272 271 270 270 269 269 269 269 269 268 267 266
224 224 225 229 234 239 242 242 240 237 236 237 237 235 234 235 237 242 250 257 261 261 258 253 250 249 249 249 251 252 253 254 255 256 257 258 259 260 261 262 263 263 264 264 265 265 266 267 268 269 270 270 271 270 270 270 271 271 272 273 274 275 276 277 278 278 278 278 278 278 278 278 277 276 275 274 273 273 272 271 270 270 269 270 270 270 269
223 223 224 228 232 236 239 241 240 238 237 236 232 226 223 223 224 230 242 253 260 264 262 258 254 251 249 250 251 252 254 255 256 258 258 258 259 260 261 262 263 264 265 267 267 268 269 270 271 272 273 274 275 275 275 276 276 276 277 278 279 279 280 280 280 281 281 281 281 281 280 280 279 278 277 276 275 274 273 272 271 271 270 270 270 270 271
223 222 224 227 230 233 237 239 239 238 237 234 228 221 217 215 216 225 238 247 251 253 253 253 253 252 249 249 250 250 252 253 253 253 254 254 255 256 257 258 261 262 264 266 268 269 271 273 275 276 277 279 280 281 282 283 283 283 284 284 283 284 284 284 284 284 284 284 284 284 284 283 282 281 280 279 278 276 275 273 272 271 271 270 270 270 270
224 222 223 226 228 232 236 238 238 237 236 232 227 221 217 216 218 225 234 241 245 247 248 247 247 245 245 247 248 248 247 247 246 246 246 246 247 248 250 252 256 259 262 265 268 271 273 275 277 279 281 283 284 285 286 287 287 286 286 285 284 284 284 284 285 285 285 285 285 285 285 285 284 283 282 281 280 278 277 275 274 272 271 271 271 270 270
225 224 224 224 226 229 233 235 236 236 234 230 226 222 220 221 225 229 233 239 244 246 247 249 251 252 252 253 254 255 254 253 252 251 250 249 249 249 251 253 256 259 263 267 270 273 275 276 278 280 282 285 287 288 289 290 289 289 288 287 287 287 286 286 286 286 286 285 285 285 284 284 283 283 282 281 280 278 277 276 275 274 273 272 271 271 270
225 224 222 222 223 226 230 232 233 233 231 227 226 225 225 228 231 234 238 243 247 248 249 251 254 256 258 258 258 260 260 259 258 257 256 255 254 255 256 259 262 265 269 273 276 279 281 282 283 284 286 287 289 290 291 291 291 291 290 290 290 289 288 288 287 287 286 286 285 285 284 283 282 281 281 280 279 277 276 275 275 274 273 272 271 271 270
224 222 221 221 223 225 227 229 230 230 229 227 227 228 230 233 237 240 243 249 253 255 254 255 256 258 260 260 260 261 260 260 259 258 257 257 257 259 261 264 268 273 278 282 284 286 286 286 286 286 287 288 289 290 291 291 291 291 291 290 290 289 289 288 288 288 287 287 286 286 285 284 283 282 280 279 277 276 276 275 274 274 273 272 271 270 270
222 221 221 221 223 224 226 227 228 228 228 229 230 231 233 236 239 243 249 255 258 258 257 257 258 260 262 263 264 263 262 262 261 259 259 259 260 261 264 268 272 277 281 285 286 287 286 286 286 286 287 288 290 291 291 291 291 291 290 290 290 290 290 289 289 288 288 287 287 286 285 284 283 282 281 279 278 276 275 275 274 274 274 273 272 271 270
221 220 219 220 221 223 224 225 225 226 228 229 231 232 233 236 241 248 254 258 258 257 255 256 258 261 263 266 267 267 266 265 264 264 264 264 264 265 267 269 272 276 279 282 284 284 284 283 283 284 285 287 288 289 289 289 289 290 290 290 290 290 290 290 289 289 288 287 287 286 285 284 283 282 280 280 278 277 276 275 274 274 274 273 273 272 271
219 218 217 219 220 222 223 224 224 226 227 229 231 232 234 238 244 251 255 256 254 252 252 256 260 265 269 270 271 272 272 272 273 273 273 273 272 272 272 273 274 276 278 281 282 283 282 281 281 283 285 287 289 290 290 291 291 291 291 291 291 291 290 290 290 289 288 288 287 286 285 284 283 282 280 279 278 277 276 275 275 274 273 273 273 273 272
217 216 216 218 219 220 221 223 225 226 228 230 232 234 236 241 247 251 253 251 249 250 255 260 266 271 274 275 277 280 282 284 285 285 284 283 282 281 280 280 280 281 282 283 284 283 282 282 284 287 289 291 292 293 293 293 293 293 293 293 292 292 291 291 290 289 289 288 287 286 285 284 283 282 281 280 278 277 277 276 275 274 273 273 272 272 272
217 217 217 218 218 219 221 224 225 227 229 231 234 236 239 243 248 250 250 249 249 252 258 264 269 274 278 281 284 287 289 290 290 289 288 287 287 286 286 285 284 284 285 285 284 283 283 284 287 290 292 294 294 295 295 295 295 294 294 293 293 292 291 291 290 289 289 288 287 286 285 284 283 283 282 281 279 278 277 276 276 275 274 274 273 272 271
216 216 217 218 218 218 220 224 226 227 229 232 235 238 241 245 248 250 250 250 251 255 260 265 271 276 280 283 286 288 290 290 290 290 290 289 288 288 287 286 285 285 284 283 282 282 282 285 288 291 293 295 295 295 295 295 295 295 295 294 293 293 292 291 291 290 289 288 287 286 286 285 284 283 282 281 279 278 277 277 276 275 274 274 273 272 271
216 216 217 218 218 218 220 224 227 229 230 233 236 239 243 246 249 250 251 252 254 258 262 267 271 275 279 283 285 288 289 291 292 291 291 290 290 289 289 288 287 285 284 283 282 282 283 286 290 292 294 295 295 296 296 296 296 295 295 294 294 293 292 292 291 290 289 288 287 286 285 285 283 282 281 280 279 278 278 277 276 275 274 274 273 273 272
216 217 217 218 220 220 221 224 227 230 232 234 237 241 244 246 249 250 251 253 256 259 263 267 271 275 279 283 286 288 289 290 291 291 291 292 292 292 291 290 288 285 284 282 282 283 285 289 291 293 294 295 296 296 296 296 295 295 294 294 294 293 293 292 291 290 289 289 288 287 286 285 284 282 281 279 279 278 279 279 278 277 277 276 275 274 273
217 218 218 219 221 223 224 226 228 230 233 236 238 241 244 246 249 250 252 254 257 260 264 267 271 276 280 283 285 287 287 287 288 289 290 292 293 292 292 290 287 285 283 283 283 285 288 290 292 294 294 295 296 296 296 295 295 294 294 294 293 293 293 292 292 291 291 290 289 288 287 286 284 282 280 279 279 279 280 280 281 281 281 280 278 277 275
218 219 219 220 221 224 226 227 229 231 234 237 239 242 244 247 249 251 253 256 259 262 265 269 273 276 280 283 285 286 286 286 286 287 289 290 291 292 292 291 288 286 284 284 286 288 290 292 293 294 295 296 296 296 295 295 295 294 294 293 293 293 293 293 293 293 292 292 291 290 289 286 284 281 279 279 279 280 281 282 282 283 283 283 281 279 278
219 220 220 221 223 224 227 229 231 233 236 239 240 243 245 247 250 253 255 259 262 265 267 270 273 277 280 283 285 287 287 288 288 289 289 290 290 291 292 291 289 287 287 287 289 291 292 293 295 296 296 296 296 295 295 295 294 294 294 294 294 294 294 294 294 293 293 293 292 290 288 285 283 282 281 280 281 281 282 283 283 283 284 284 282 281 279
220 221 222 223 225 227 229 231 232 234 237 240 241 243 245 248 251 254 258 261 264 267 269 272 275 278 282 284 287 289 289 289 290 291 290 290 290 290 291 291 290 289 289 290 291 292 294 295 296 297 297 296 295 295 295 294 294 294 295 295 295 295 295 295 295 295 295 294 293 290 287 284 283 283 283 283 283 283 283 283 283 283 282 282 281 280 280
221 222 224 226 228 230 232 233 234 236 238 240 242 244 246 249 253 256 259 263 266 270 273 275 278 280 283 286 288 289 289 289 289 290 289 289 289 290 291 291 290 290 290 291 292 294 295 297 297 297 296 295 295 295 295 295 295 295 296 296 297 297 297 297 296 296 296 295 294 291 287 284 283 283 284 284 285 285 284 284 283 282 281 280 279 278 278
221 223 224 226 228 230 232 233 235 237 239 241 243 246 248 251 254 257 261 265 270 273 275 276 278 280 284 287 289 290 290 289 289 288 288 289 290 291 291 290 290 290 291 292 294 295 296 297 297 296 295 294 294 294 295 295 296 296 297 298 298 299 299 299 299 298 297 296 293 290 287 285 284 284 285 285 286 286 286 286 285 283 281 279 278 277 277
224 225 227 229 231 233 235 237 238 240 242 244 246 248 250 253 256 259 264 268 271 273 273 275 278 281 286 289 290 291 291 290 289 288 288 289 290 290 290 290 290 291 292 294 295 296 296 296 295 294 294 294 294 295 295 296 297 298 299 300 301 301 301 301 301 300 298 296 292 289 287 285 285 285 285 286 286 286 287 288 288 285 282 279 278 277 277
226 227 230 233 235 237 239 240 241 243 245 246 248 250 252 255 258 262 266 269 271 271 273 276 279 283 286 288 289 290 290 289 289 289 289 289 290 290 290 290 291 292 293 294 295 295 295 294 293 293 293 294 295 295 296 297 298 299 301 302 302 303 304 304 304 302 300 296 292 289 287 286 286 286 286 286 285 286 289 291 291 288 284 280 279 278 277
227 229 232 235 237 239 240 241 243 245 247 249 250 252 254 257 261 265 267 269 270 271 274 277 280 282 284 287 288 289 289 289 289 289 289 289 289 289 289 290 291 292 293 294 294 294 293 292 292 292 293 294 294 295 297 298 299 301 302 304 306 307 307 307 306 304 302 298 294 291 289 289 289 289 289 287 286 286 289 292 293 290 287 283 280 277 275
230 232 234 236 237 240 242 244 246 247 249 250 252 254 258 261 264 266 267 268 269 272 274 277 279 281 284 286 287 288 289 289 289 289 289 288 288 288 288 290 291 292 293 293 293 292 292 291 291 292 292 293 294 295 297 298 300 302 305 307 309 310 310 309 308 306 304 300 297 294 293 293 293 293 293 291 290 289 291 292 292 291 288 285 281 277 274
Height
5832 5832 5832 5832 5832 5832 5833 5833 5834 5834 5834 5834 5834 5835 5835 5836 5836 5835 5837 5839 5839 5839 5842 5843 5844 5846 5849 5851 5853 5855 5857 5859 5860 5862 5863 5865 5866 5867 5866 5866 5866 5865 5866 5866 5866 5867 5868 5869 5869 5869 5872 5876 5878 5881 5883 5885 5888 5890 5891 5892 5893 5894 5895 5897 5898 5899 5900 5901 5903 5904 5906 5907 5908 5910 5911 5912 5913 5914 5915 5915 5916 5917 5918 5919 5920 5921 5922
5830 5830 5830 5830 5830 5830 5830 5831 5831 5831 5831 5831 5831 5831 5832 5833 5832 5833 5835 5836 5836 5836 5838 5840 5841 5843 5846 5849 5850 5852 5854 5856 5857 5859 5861 5863 5864 5865 5864 5864 5863 5863 5863 5863 5863 5863 5864 5866 5866 5865 5866 5870 5874 5877 5879 5881 5884 5886 5889 5890 5891 5892 5893 5895 5895 5895 5897 5899 5900 5901 5903 5904 5905 5906 5908 5909 5911 5912 5912 5913 5913 5913 5915 5916 5917 5918 5919
5828 5828 5828 5828 5828 5828 5828 5828 5828 5828 5828 5828 5828 5828 5828 5829 5829 5830 5832 5832 5832 5834 5835 5837 5838 5840 5843 5846 5848 5849 5850 5852 5854 5856 5859 5861 5861 5860 5861 5861 5860 5860 5860 5861 5861 5861 5861 5862 5864 5863 5864 5867 5871 5872 5875 5877 5880 5882 5884 5886 5888 5889 5890 5891 5891 5893 5895 5896 5897 5899 5900 5900 5901 5903 5905 5907 5909 5910 5910 5910 5911 5911 5911 5912 5914 5915 5916
5826 5826 5826 5825 5825 5826 5826 5826 5826 5825 5825 5825 5825 5825 5825 5826 5826 5827 5828 5829 5829 5831 5832 5834 5835 5837 5839 5842 5845 5846 5847 5848 5850 5853 5856 5859 5857 5856 5857 5858 5858 5858 5858 5858 5859 5859 5859 5860 5862 5863 5863 5865 5868 5870 5871 5873 5876 5878 5880 5882 5883 5885 5886 5886 5888 5890 5892 5892 5894 5896 5897 5898 5899 5900 5902 5903 5904 5906 5907 5907 5909 5909 5909 5909 5910 5910 5912
5824 5824 5824 5823 5823 5823 5823 5823 5823 5823 5823 5822 5822 5822 5822 5823 5823 5824 5825 5826 5826 5827 5829 5831 5831 5833 5835 5839 5842 5844 5844 5844 5846 5849 5853 5854 5853 5854 5855 5855 5856 5856 5856 5856 5856 5857 5858 5859 5860 5862 5862 5863 5865 5866 5868 5870 5872 5874 5876 5877 5878 5880 5882 5882 5884 5886 5888 5889 5890 5892 5893 5895 5896 5896 5898 5898 5899 5900 5901 5902 5905 5906 5906 5906 5906 5907 5907
5822 5822 5822 5822 5822 5821 5820 5820 5821 5821 5820 5820 5819 5819 5819 5819 5819 5820 5822 5823 5824 5824 5826 5828 5828 5829 5832 5836 5838 5841 5842 5840 5840 5843 5847 5849 5851 5852 5853 5853 5854 5854 5854 5855 5854 5855 5856 5857 5859 5861 5862 5862 5863 5863 5865 5867 5869 5871 5872 5872 5874 5875 5876 5878 5880 5881 5883 5885 5886 5887 5888 5890 5890 5891 5893 5894 5895 5896 5896 5897 5899 5902 5903 5904 5904 5904 5904
5820 5820 5820 5820 5819 5818 5818 5818 5818 5818 5818 5818 5817 5817 5816 5817 5816 5817 5818 5819 5820 5822 5823 5825 5826 5826 5829 5832 5834 5837 5838 5837 5837 5839 5842 5845 5847 5849 5851 5851 5852 5853 5853 5853 5853 5853 5854 5855 5857 5859 5861 5861 5862 5862 5862 5863 5865 5866 5867 5868 5869 5869 5871 5873 5875 5877 5879 5881 5882 5883 5884 5884 5885 5886 5888 5889 5891 5891 5891 5892 5895 5898 5899 5899 5899 5900 5900
5818 5818 5818 5818 5817 5817 5816 5816 5816 5816 5816 5816 5815 5814 5814 5814 5814 5814 5815 5816 5817 5819 5820 5822 5823 5824 5826 5828 5831 5833 5834 5834 5835 5836 5838 5841 5843 5846 5848 5849 5850 5851 5851 5852 5852 5853 5853 5853 5855 5857 5859 5860 5861 5861 5861 5861 5862 5863 5863 5864 5864 5865 5865 5867 5869 5872 5875 5877 5878 5878 5879 5879 5879 5881 5883 5884 5885 5886 5886 5888 5890 5893 5893 5892 5892 5894 5895
5816 5816 5816 5816 5816 5815 5815 5814 5814 5814 5814 5814 5813 5812 5811 5812 5812 5812 5812 5813 5814 5816 5817 5819 5821 5822 5824 5826 5829 5831 5832 5832 5832 5833 5835 5837 5840 5842 5844 5846 5848 5849 5850 5850 5851 5852 5852 5852 5853 5854 5856 5858 5858 5859 5860 5860 5860 5861 5861 5861 5861 5861 5862 5863 5865 5867 5869 5872 5872 5872 5872 5874 5874 5875 5876 5877 5878 5879 5881 5882 5884 5885 5886 5886 5886 5887 5889
5813 5814 5814 5814 5814 5813 5813 5812 5812 5813 5812 5812 5812 5811 5810 5810 5810 5810 5810 5811 5813 5814 5814 5816 5818 5820 5821 5823 5826 5828 5829 5830 5829 5830 5832 5834 5837 5839 5841 5844 5846 5847 5848 5849 5850 5850 5851 5851 5852 5852 5854 5855 5856 5857 5858 5859 5859 5859 5859 5859 5859 5860 5860 5861 5862 5863 5865 5866 5867 5866 5866 5868 5869 5870 5870 5870 5871 5873 5874 5875 5876 5878 5879 5880 5880 5881 5882
5811 5811 5812 5812 5811 5811 5811 5811 5811 5811 5810 5810 5810 5810 5809 5808 5808 5808 5808 5808 5810 5811 5812 5813 5815 5817 5818 5820 5822 5824 5826 5827 5827 5828 5830 5832 5835 5837 5839 5841 5843 5845 5846 5847 5848 5849 5849 5850 5850 5851 5852 5853 5854 5855 5856 5857 5857 5857 5857 5857 5857 5858 5858 5859 5859 5859 5859 5860 5861 5861 5861 5862 5863 5866 5866 5864 5865 5866 5867 5868 5870 5870 5871 5872 5873 5874 5875
5809 5809 5809 5809 5809 5809 5809 5809 5809 5809 5809 5808 5808 5808 5807 5806 5805 5806 5806 5806 5806 5807 5809 5810 5812 5813 5815 5816 5818 5820 5821 5823 5825 5827 5829 5831 5833 5834 5836 5838 5840 5842 5844 5845 5846 5846 5847 5847 5848 5849 5850 5851 5852 5853 5853 5854 5854 5855 5855 5855 5855 5855 5856 5856 5856 5856 5855 5855 5855 5856 5857 5858 5859 5861 5860 5859 5859 5861 5861 5862 5863 5863 5864 5865 5867 5869 5870
5806 5807 5807 5807 5807 5806 5807 5807 5807 5807 5807 5806 5806 5806 5805 5804 5803 5804 5804 5804 5804 5805 5806 5808 5809 5810 5811 5813 5815 5816 5817 5819 5821 5824 5827 5829 5830 5832 5833 5835 5836 5838 5840 5842 5843 5843 5844 5845 5845 5845 5846 5848 5849 5850 5850 5851 5851 5852 5852 5852 5852 5853 5853 5853 5853 5853 5853 5852 5852 5852 5853 5854 5855 5855 5855 5854 5855 5855 5856 5856 5857 5857 5857 5859 5861 5863 5865
5803 5804 5804 5804 5804 5804 5804 5805 5805 5805 5805 5804 5804 5803 5803 5802 5802 5802 5802 5803 5803 5804 5804 5805 5806 5807 5808 5810 5812 5813 5814 5815 5817 5820 5823 5825 5827 5829 5830 5832 5833 5835 5836 5838 5839 5840 5841 5841 5842 5842 5843 5844 5845 5846 5847 5848 5848 5849 5849 5850 5850 5850 5850 5851 5851 5851 5850 5850 5850 5850 5849 5850 5851 5851 5851 5852 5852 5851 5851 5851 5851 5852 5853 5854 5856 5857 5858
5801 5801 5802 5802 5801 5801 5802 5803 5803 5803 5802 5802 5801 5801 5800 5800 5800 5800 5800 5801 5801 5802 5803 5803 5804 5804 5805 5807 5809 5810 5811 5813 5815 5817 5819 5822 5823 5825 5827 5828 5830 5831 5833 5834 5835 5836 5837 5837 5838 5839 5839 5840 5841 5842 5843 5844 5845 5845 5846 5846 5847 5847 5847 5847 5848 5848 5847 5847 5847 5848 5847 5847 5847 5847 5848 5849 5849 5849 5848 5847 5847 5848 5849 5850 5852 5853 5854
5798 5799 5799 5799 5799 5799 5800 5801 5801 5801 5800 5799 5799 5799 5798 5798 5798 5798 5798 5799 5799 5800 5800 5801 5801 5802 5803 5804 5805 5807 5809 5810 5812 5814 5816 5818 5820 5821 5823 5824 5826 5828 5829 5830 5831 5832 5833 5834 5834 5835 5835 5836 5837 5838 5839 5840 5841 5842 5842 5843 5843 5843 5844 5844 5844 5844 5844 5844 5844 5845 5845 5845 5845 5845 5845 5845 5845 5846 5845 5845 5845 5845 5845 5846 5847 5848 5850
5795 5796 5796 5796 5797 5797 5798 5798 5799 5799 5798 5798 5797 5797 5797 5797 5797 5797 5796 5797 5797 5797 5798 5798 5799 5800 5800 5801 5802 5804 5806 5807 5809 5810 5812 5814 5816 5817 5819 5820 5822 5823 5825 5826 5827 5828 5829 5830 5830 5831 5831 5832 5833 5833 5834 5835 5836 5837 5838 5839 5839 5840 5840 5840 5841 5841 5841 5841 5841 5841 5841 5842 5842 5842 5842 5842 5842 5842 5843 5843 5843 5842 5842 5842 5843 5844 5845
5792 5793 5793 5794 5794 5795 5796 5796 5797 5796 5796 5796 5795 5795 5795 5795 5795 5795 5795 5795 5795 5796 5796 5796 5797 5798 5798 5799 5800 5801 5803 5804 5805 5807 5809 5810 5812 5813 5815 5817 5818 5819 5821 5822 5823 5824 5825 5826 5826 5827 5828 5828 5829 5829 5830 5831 5832 5833 5834 5835 5835 5836 5836 5836 5837 5837 5837 5838 5838 5838 5838 5838 5838 5838 5839 5839 5839 5839 5839 5839 5839 5840 5840 5841 5841 5841 5842
5790 5790 5791 5791 5792 5793 5793 5794 5794 5794 5794 5794 5793 5793 5794 5794 5794 5794 5794 5794 5794 5794 5794 5794 5795 5796 5796 5797 5798 5799 5800 5801 5802 5804 5805 5807 5808 5809 5811 5813 5814 5816 5817 5818 5819 5820 5821 5822 5822 5823 5824 5824 5825 5825 5826 5827 5828 5828 5829 5830 5831 5831 5832 5832 5832 5833 5833 5833 5834 5835 5835 5835 5834 5834 5835 5835 5835 5835 5836 5836 5836 5837 5837 5838 5839 5840 5840
5787 5788 5788 5789 5790 5791 5791 5791 5792 5792 5792 5792 5792 5791 5792 5792 5792 5792 5793 5793 5793 5793 5793 5793 5794 5794 5795 5796 5797 5798 5798 5799 5800 5801 5802 5804 5805 5806 5807 5809 5811 5812 5814 5815 5816 5816 5817 5818 5818 5819 5820 5820 5821 5822 5822 5823 5823 5824 5825 5826 5826 5827 5827 5828 5828 5828 5829 5829 5829 5830 5830 5831 5831 5831 5831 5831 5831 5832 5832 5832 5833 5834 5834 5835 5837 5837 5838
5784 5785 5786 5787 5788 5789 5789 5789 5789 5790 5790 5790 5790 5790 5790 5790 5790 5791 5791 5791 5792 5792 5792 5792 5792 5793 5794 5795 5796 5797 5797 5798 5799 5800 5801 5802 5803 5804 5805 5806 5807 5809 5810 5811 5812 5813 5814 5814 5815 5816 5816 5816 5817 5818 5818 5819 5819 5820 5821 5821 5822 5823 5823 5824 5824 5824 5825 5825 5825 5825 5826 5826 5826 5827 5827 5827 5828 5828 5828 5828 5829 5830 5830 5831 5832 5833 5834
5781 5782 5783 5785 5786 5786 5787 5787 5787 5788 5788 5788 5788 5788 5788 5788 5788 5789 5789 5790 5790 5790 5790 5791 5791 5792 5792 5793 5794 5795 5796 5797 5797 5798 5799 5800 5801 5802 5803 5804 5805 5806 5807 5808 5809 5810 5811 5812 5812 5813 5813 5813 5813 5814 5815 5815 5816 5816 5817 5817 5818 5818 5819 5819 5820 5820 5821 5821 5821 5821 5821 5821 5822 5822 5822 5823 5823 5823 5823 5824 5824 5825 5826 5826 5827 5828 5829
5778 5779 5781 5782 5783 5784 5785 5785 5785 5786 5786 5786 5786 5786 5786 5786 5787 5787 5787 5788 5788 5788 5789 5789 5789 5790 5791 5792 5792 5793 5794 5795 5796 5797 5797 5798 5799 5800 5801 5801 5802 5803 5804 5805 5806 5807 5808 5809 5809 5810 5810 5810 5810 5810 5811 5812 5812 5813 5813 5813 5814 5814 5815 5815 5816 5816 5817 5817 5817 5817 5817 5817 5817 5817 5818 5818 5818 5818 5819 5819 5819 5820 5821 5821 5822 5823 5823
5776 5777 5778 5779 5780 5782 5782 5783 5784 5784 5784 5784 5784 5784 5785 5785 5785 5786 5786 5786 5787 5787 5787 5788 5788 5789 5789 5790 5791 5792 5792 5793 5794 5795 5796 5796 5797 5798 5799 5799 5800 5801 5801 5802 5804 5805 5806 5806 5806 5807 5807 5807 5807 5808 5808 5808 5809 5809 5810 5810 5810 5811 5811 5811 5811 5812 5812 5813 5813 5813 5813 5813 5813 5813 5813 5813 5814 5814 5814 5814 5814 5815 5815 5816 5816 5817 5818
5773 5774 5775 5777 5778 5779 5780 5781 5782 5782 5783 5783 5783 5783 5783 5784 5784 5784 5785 5785 5785 5785 5786 5786 5787 5787 5788 5788 5789 5790 5790 5791 5792 5793 5793 5794 5795 5796 5796 5797 5797 5798 5799 5800 5802 5802 5803 5803 5803 5804 5804 5805 5805 5805 5805 5806 5806 5806 5806 5807 5807 5807 5807 5807 5807 5807 5808 5808 5808 5809 5809 5809 5809 5809 5809 5809 5809 5809 5809 5809 5809 5809 5810 5811 5811 5811 5812
5771 5771 5773 5775 5776 5777 5778 5779 5780 5780 5781 5781 5781 5781 5781 5782 5782 5783 5783 5783 5784 5784 5784 5785 5785 5786 5786 5787 5787 5788 5789 5789 5790 5791 5791 5792 5792 5793 5793 5794 5795 5796 5797 5799 5800 5800 5800 5800 5801 5801 5802 5802 5802 5803 5803 5803 5803 5803 5803 5803 5803 5804 5804 5803 5803 5803 5803 5803 5803 5804 5804 5804 5804 5804 5804 5804 5804 5804 5804 5804 5804 5804 5804 5805 5805 5806 5806
5768 5769 5771 5772 5773 5774 5775 5776 5778 5778 5779 5779 5779 5779 5780 5780 5781 5781 5781 5781 5782 5782 5782 5783 5784 5784 5785 5785 5786 5786 5787 5787 5788 5788 5789 5789 5790 5791 5791 5792 5793 5794 5795 5796 5797 5797 5798 5798 5798 5798 5799 5799 5800 5800 5800 5800 5800 5800 5800 5800 5800 5800 5800 5799 5799 5799 5799 5799 5798 5798 5798 5799 5799 5799 5799 5799 5799 5799 5799 5799 5799 5799 5799 5799 5799 5800 5800
5765 5767 5768 5770 5771 5772 5773 5774 5775 5776 5776 5777 5777 5778 5779 5779 5779 5780 5780 5780 5780 5780 5781 5781 5782 5782 5783 5783 5784 5784 5785 5785 5786 5786 5787 5787 5788 5789 5789 5790 5791 5791 5792 5793 5794 5794 5794 5795 5795 5796 5796 5796 5797 5797 5797 5797 5797 5797 5796 5796 5796 5796 5796 5795 5795 5795 5795 5794 5794 5794 5793 5793 5793 5793 5793 5793 5793 5793 5793 5793 5793 5793 5793 5793 5793 5793 5794
5763 5764 5766 5767 5768 5769 5770 5771 5773 5774 5774 5775 5776 5776 5777 5778 5778 5779 5779 5779 5779 5779 5779 5780 5780 5780 5781 5781 5782 5782 5783 5783 5784 5784 5785 5785 5786 5786 5787 5788 5788 5789 5789 5790 5790 5791 5791 5791 5792 5792 5793 5793 5793 5793 5794 5794 5793 5793 5793 5793 5792 5792 5791 5791 5791 5790 5790 5790 5789 5789 5788 5788 5788 5787 5787 5787 5787 5787 5787 5787 5787 5787 5787 5787 5787 5787 5787
5760 5762 5763 5764 5766 5767 5768 5769 5770 5771 5772 5773 5774 5775 5775 5776 5777 5777 5778 5778 5778 5778 5778 5779 5779 5779 5779 5780 5780 5780 5781 5781 5782 5782 5783 5783 5784 5784 5785 5785 5786 5786 5786 5787 5787 5788 5788 5788 5789 5789 5789 5790 5790 5790 5790 5790 5790 5790 5790 5789 5789 5788 5787 5787 5786 5786 5785 5785 5784 5784 5783 5783 5782 5782 5781 5781 5780 5780 5780 5780 5780 5780 5780 5780 5780 5780 5780
5758 5759 5761 5762 5764 5765 5766 5767 5768 5769 5770 5771 5772 5773 5774 5775 5775 5776 5777 5777 5777 5777 5777 5778 5778 5778 5778 5778 5779 5779 5779 5780 5780 5781 5781 5781 5782 5782 5783 5783 5784 5784 5784 5784 5785 5785 5785 5786 5786 5786 5786 5786 5786 5786 5786 5786 5786 5786 5786 5785 5785 5784 5784 5783 5782 5781 5781 5780 5779 5779 5778 5777 5777 5776 5775 5775 5774 5773 5772 5772 5772 5772 5773 5773 5773 5773 5773
5755 5757 5759 5760 5761 5762 5763 5764 5766 5767 5768 5769 5770 5771 5772 5773 5774 5775 5775 5776 5776 5776 5776 5776 5777 5777 5777 5777 5778 5778 5778 5778 5779 5779 5779 5780 5780 5781 5781 5781 5782 5782 5782 5782 5782 5783 5783 5783 5783 5783 5783 5783 5783 5782 5782 5782 5781 5781 5781 5780 5780 5779 5779 5778 5777 5776 5775 5774 5774 5773 5772 5771 5771 5770 5769 5768 5767 5766 5765 5765 5764 5764 5765 5765 5765 5765 5765
5753 5755 5756 5757 5758 5759 5761 5762 5763 5764 5765 5767 5768 5769 5770 5771 5772 5773 5773 5774 5774 5775 5775 5775 5775 5776 5776 5776 5776 5776 5777 5777 5777 5777 5778 5778 5778 5779 5779 5779 5779 5779 5780 5780 5780 5780 5780 5780 5780 5780 5779 5779 5779 5778 5778 5777 5777 5776 5775 5775 5774 5773 5773 5772 5771 5770 5769 5768 5767 5766 5765 5764 5764 5763 5762 5761 5760 5759 5758 5757 5757 5757 5757 5757 5757 5758 5757
5750 5751 5753 5754 5755 5757 5758 5760 5761 5762 5763 5765 5766 5767 5768 5769 5770 5771 5771 5772 5773 5773 5773 5774 5774 5774 5774 5774 5775 5775 5775 5775 5775 5776 5776 5776 5776 5776 5776 5776 5776 5776 5776 5777 5776 5776 5776 5776 5776 5775 5775 5775 5774 5774 5773 5772 5772 5771 5770 5769 5768 5767 5766 5765 5765 5763 5762 5761 5760 5759 5758 5757 5756 5756 5755 5754 5752 5751 5751 5750 5749 5749 5748 5748 5749 5749 5749
5746 5748 5750 5751 5753 5755 5756 5757 5759 5760 5761 5762 5764 5765 5766 5766 5767 5768 5769 5770 5770 5771 5771 5771 5772 5772 5772 5773 5773 5773 5773 5773 5773 5773 5773 5773 5773 5773 5773 5773 5773 5773 5773 5773 5773 5772 5772 5772 5772 5771 5771 5770 5770 5769 5768 5767 5766 5765 5764 5763 5761 5760 5759 5758 5758 5757 5755 5754 5753 5752 5751 5750 5749 5748 5747 5746 5744 5744 5743 5742 5742 5741 5740 5739 5739 5740 5741
5743 5745 5747 5749 5750 5752 5753 5755 5756 5757 5759 5760 5761 5762 5763 5764 5765 5766 5767 5767 5768 5768 5769 5769 5770 5770 5770 5770 5771 5771 5771 5771 5771 5771 5771 5771 5771 5770 5770 5770 5770 5770 5769 5769 5769 5769 5768 5768 5768 5767 5766 5766 5765 5764 5763 5762 5761 5760 5758 5757 5755 5754 5753 5751 5750 5749 5748 5747 5746 5744 5743 5743 5742 5741 5740 5738 5737 5736 5735 5734 5734 5734 5732 5730 5730 5731 5732
5740 5742 5744 5746 5747 5749 5751 5752 5753 5755 5756 5758 5759 5760 5761 5762 5763 5764 5764 5765 5765 5766 5766 5767 5767 5767 5768 5768 5768 5768 5768 5768 5768 5768 5768 5768 5767 5767 5767 5767 5766 5766 5766 5766 5765 5765 5764 5764 5763 5763 5762 5761 5760 5759 5758 5757 5755 5754 5752 5751 5749 5748 5746 5744 5743 5741 5740 5739 5738 5736 5736 5735 5733 5732 5732 5731 5729 5728 5727 5726 5726 5726 5724 5722 5722 5723 5723
5736 5739 5741 5743 5745 5747 5748 5749 5751 5752 5754 5755 5757 5758 5759 5760 5760 5761 5762 5762 5763 5763 5764 5764 5764 5764 5764 5764 5764 5764 5764 5764 5764 5764 5764 5763 5763 5763 5763 5762 5762 5761 5761 5761 5760 5759 5759 5758 5758 5757 5756 5756 5755 5753 5752 5751 5749 5747 5746 5744 5742 5741 5739 5737 5736 5734 5733 5731 5730 5729 5728 5727 5725 5724 5723 5723 5722 5720 5719 5718 5718 5718 5716 5715 5714 5715 5714
5734 5736 5738 5740 5742 5744 5745 5747 5748 5750 5751 5753 5754 5755 5756 5757 5758 5758 5759 5759 5760 5760 5761 5761 5761 5761 5761 5761 5761 5761 5761 5760 5760 5760 5759 5759 5759 5758 5758 5758 5757 5756 5756 5755 5755 5754 5753 5753 5752 5751 5751 5749 5748 5747 5746 5744 5743 5741 5739 5738 5736 5734 5732 5730 5729 5727 5726 5724 5722 5721 5719 5719 5717 5715 5714 5714 5713 5711 5710 5710 5710 5709 5707 5706 5706 5707 5706
5731 5733 5735 5737 5739 5741 5742 5744 5745 5747 5749 5750 5752 5753 5754 5755 5755 5756 5756 5757 5757 5758 5758 5758 5758 5758 5758 5758 5758 5758 5757 5757 5757 5756 5756 5755 5755 5754 5754 5753 5752 5752 5751 5750 5750 5749 5748 5748 5747 5746 5745 5743 5742 5740 5739 5738 5736 5734 5732 5731 5729 5727 5725 5723 5722 5720 5718 5717 5715 5713 5711 5710 5709 5707 5706 5704 5703 5702 5701 5701 5701 5700 5699 5697 5697 5697 5697
5727 5730 5732 5734 5736 5738 5740 5741 5743 5745 5746 5748 5749 5750 5751 5752 5752 5753 5753 5754 5754 5755 5755 5755 5755 5755 5755 5755 5754 5754 5754 5753 5753 5752 5752 5751 5751 5750 5749 5749 5748 5747 5746 5745 5745 5744 5743 5742 5741 5740 5739 5737 5735 5734 5732 5731 5729 5727 5725 5723 5721 5719 5717 5716 5714 5712 5711 5709 5708 5706 5704 5703 5701 5699 5697 5696 5694 5693 5693 5693 5692 5691 5690 5689 5688 5687 5687
5725 5727 5729 5731 5733 5735 5737 5739 5740 5742 5743 5745 5746 5747 5748 5749 5749 5750 5750 5751 5751 5751 5751 5751 5751 5751 5751 5751 5751 5751 5750 5750 5749 5749 5748 5747 5746 5745 5745 5744 5743 5742 5741 5741 5740 5739 5738 5737 5735 5734 5732 5731 5729 5727 5725 5723 5721 5719 5717 5716 5713 5711 5710 5708 5707 5705 5703 5701 5700 5698 5696 5695 5693 5691 5689 5687 5685 5684 5684 5684 5683 5682 5681 5680 5680 5679 5677
5722 5724 5727 5729 5730 5732 5734 5736 5738 5739 5741 5742 5743 5744 5745 5745 5746 5747 5747 5748 5748 5748 5748 5748 5748 5748 5748 5747 5747 5747 5746 5746 5745 5744 5744 5743 5742 5741 5740 5739 5738 5737 5736 5736 5735 5734 5732 5731 5729 5728 5726 5724 5722 5720 5718 5716 5714 5712 5710 5708 5706 5704 5702 5700 5698 5697 5695 5693 5691 5689 5688 5686 5684 5683 5681 5680 5678 5677 5677 5676 5675 5674 5673 5672 5671 5670 5668
5720 5722 5724 5726 5728 5729 5731 5733 5735 5736 5737 5739 5740 5740 5741 5742 5743 5743 5744 5744 5744 5744 5744 5744 5744 5744 5744 5743 5743 5743 5742 5741 5741 5740 5739 5738 5737 5736 5735 5734 5733 5732 5731 5730 5729 5728 5726 5725 5723 5721 5720 5718 5716 5714 5712 5709 5707 5705 5703 5701 5699 5697 5696 5693 5691 5689 5687 5685 5683 5681 5679 5678 5676 5675 5674 5673 5671 5670 5669 5668 5667 5666 5666 5664 5663 5662 5660
5717 5719 5721 5723 5725 5727 5728 5730 5731 5733 5734 5735 5736 5737 5738 5738 5739 5739 5740 5740 5740 5740 5740 5740 5740 5740 5740 5740 5739 5739 5738 5737 5736 5735 5734 5733 5732 5731 5730 5729 5728 5726 5725 5724 5723 5722 5720 5719 5717 5715 5713 5711 5709 5707 5705 5703 5700 5698 5697 5695 5693 5691 5689 5687 5684 5682 5680 5678 5676 5673 5672 5670 5669 5667 5666 5665 5664 5663 5662 5661 5659 5658 5657 5656 5655 5654 5653
5715 5717 5719 5720 5722 5724 5725 5727 5728 5729 5731 5732 5732 5733 5734 5735 5735 5735 5736 5736 5736 5736 5736 5736 5736 5736 5736 5735 5735 5734 5733 5732 5731 5730 5729 5728 5727 5726 5725 5723 5722 5721 5720 5718 5717 5715 5714 5712 5710 5709 5707 5705 5702 5700 5698 5696 5694 5692 5690 5688 5686 5684 5682 5680 5678 5676 5673 5671 5669 5667 5665 5664 5662 5660 5659 5658 5657 5656 5655 5653 5652 5651 5650 5649 5648 5647 5646
5712 5714 5716 5718 5719 5721 5722 5724 5725 5726 5727 5728 5728 5729 5730 5731 5731 5731 5731 5731 5732 5732 5732 5732 5732 5732 5731 5731 5730 5729 5728 5727 5726 5725 5724 5723 5722 5721 5720 5718 5717 5715 5714 5713 5711 5709 5708 5706 5704 5702 5700 5698 5696 5694 5692 5690 5688 5686 5685 5682 5680 5678 5676 5673 5671 5669 5667 5664 5662 5660 5658 5657 5656 5654 5653 5651 5650 5649 5647 5646 5645 5644 5643 5642 5641 5640 5640
5709 5711 5712 5714 5716 5717 5719 5720 5721 5722 5723 5724 5724 5725 5726 5726 5726 5726 5727 5728 5728 5728 5728 5728 5727 5727 5727 5726 5725 5724 5723 5722 5721 5720 5719 5718 5717 5715 5714 5713 5711 5710 5708 5707 5705 5704 5702 5700 5698 5696 5694 5692 5690 5688 5686 5684 5683 5681 5679 5677 5674 5672 5669 5667 5664 5662 5660 5657 5655 5653 5651 5650 5649 5648 5646 5645 5643 5642 5641 5640 5638 5637 5636 5635 5635 5634 5633
5706 5708 5709 5711 5712 5714 5715 5716 5717 5718 5719 5720 5720 5721 5721 5721 5722 5722 5723 5724 5724 5724 5723 5723 5723 5722 5722 5721 5720 5719 5718 5717 5716 5715 5714 5713 5711 5710 5709 5707 5706 5704 5703 5701 5700 5698 5696 5694 5692 5690 5687 5686 5684 5683 5681 5679 5677 5675 5673 5671 5668 5666 5663 5661 5658 5655 5653 5650 5648 5646 5645 5644 5643 5642 5640 5639 5638 5636 5635 5634 5632 5631 5630 5628 5628 5627 5627
5703 5705 5707 5708 5709 5710 5711 5712 5713 5714 5714 5715 5716 5716 5716 5717 5717 5718 5719 5719 5719 5719 5718 5718 5718 5717 5717 5716 5715 5714 5713 5712 5711 5709 5708 5707 5706 5704 5703 5702 5700 5699 5697 5696 5694 5692 5691 5689 5686 5684 5682 5680 5679 5677 5675 5674 5672 5670 5667 5665 5663 5660 5657 5654 5651 5649 5646 5644 5642 5640 5639 5638 5637 5636 5635 5634 5633 5631 5630 5629 5627 5625 5624 5622 5621 5620 5620
5700 5702 5703 5704 5705 5706 5707 5708 5709 5710 5711 5711 5711 5711 5712 5713 5714 5714 5715 5714 5714 5713 5713 5713 5713 5712 5711 5711 5710 5709 5708 5706 5705 5704 5703 5701 5700 5699 5698 5696 5695 5694 5692 5690 5689 5687 5685 5683 5681 5679 5677 5676 5674 5672 5671 5669 5667 5664 5662 5659 5657 5654 5651 5648 5645 5643 5640 5638 5636 5635 5633 5632 5632 5631 5629 5628 5628 5626 5625 5623 5622 5620 5618 5617 5616 5615 5614
5697 5698 5699 5700 5701 5702 5704 5705 5705 5706 5706 5706 5707 5707 5708 5709 5709 5710 5710 5709 5709 5708 5708 5708 5708 5707 5706 5705 5704 5703 5702 5701 5700 5698 5697 5696 5695 5693 5692 5691 5690 5688 5687 5685 5683 5682 5680 5678 5676 5675 5673 5671 5669 5668 5666 5664 5662 5659 5657 5654 5651 5648 5646 5643 5640 5638 5635 5633 5631 5630 5628 5627 5626 5625 5624 5623 5622 5621 5620 5618 5616 5615 5613 5612 5610 5610 5609